Vuelta a EspaƱa: Startlist | Stage profiles Other: Transfers 2022 > 2023

Joey Rosskopf

Human Powered Health

Joey Rosskopf is a cyclist from USA (born September 4th 1989), who currently rides for Human Powered Health (UCI ProTeam).

Information

2022 2021 2020 2019 2018 2017 2016 2015 2014 2013

Human Powered Health (ProTeam) UCI Ranking: 1917 (13pts) UCI: Race days: 36 UCI: Distance: 5.987km
Date Pos GC Race UCI
15.08 Volta a Portugal | 2.1 2022-08-15 Show more
15.08 43 Volta a Portugal | Overall 2022-08-15
31.07 72 Circuito de Getxo | 1.1 2022-07-31Show more
25.07 35 Villafranca de Ordizia | 1.1 2022-07-25Show more
19.06 Tour de Suisse | 2.UWT 2022-06-19 Show more
19.06 DNF Tour de Suisse | Overall 2022-06-19
10.06 59 GP Kanton Aargau | 1.1 2022-06-10Show more
29.05 Boucles de la Mayenne | 2.Pro 2022-05-29 Show more
29.05 26 Boucles de la Mayenne | Overall 2022-05-295
15.05 Tour de Hongrie | 2.1 2022-05-15 Show more
15.05 18 Tour de Hongrie | Overall 2022-05-153
01.05 Tour of Hellas | 2.1 2022-05-01 Show more
01.05 31 Tour of Hellas | Overall 2022-05-01
06.02 Volta Comunitat Valenciana | 2.Pro 2022-02-06 Show more
06.02 DNF Volta Comunitat Valenciana | Overall 2022-02-06
15.08 19 Volta a Portugal | Points 2022-08-15
01.05 18 Tour of Hellas | Points 2022-05-01
29.05 36 Boucles de la Mayenne | Points 2022-05-29
15.05 34 Tour de Hongrie | Points 2022-05-15
15.05 20 Tour de Hongrie | Mountain 2022-05-15
29.05 4 Boucles de la Mayenne | Mountain 2022-05-29
15.08 45 Volta a Portugal | Mountain 2022-08-15
15.08 14 43 Volta a Portugal | 10th stage 2022-08-15
14.08 58 44 Volta a Portugal | 9th stage 2022-08-14
13.08 8 42 Volta a Portugal | 8th stage 2022-08-13
12.08 6 48 Volta a Portugal | 7th stage 2022-08-12
11.08 39 52 Volta a Portugal | 6th stage 2022-08-11
10.08 53 53 Volta a Portugal | 5th stage 2022-08-10
08.08 16 56 Volta a Portugal | 4th stage 2022-08-08
07.08 62 58 Volta a Portugal | 3rd stage 2022-08-07
06.08 36 4 Volta a Portugal | 2nd stage 2022-08-06
05.08 36 4 Volta a Portugal | 1st stage 2022-08-05
04.08 4 4 Volta a Portugal | Prologue 2022-08-04
16.06 DNF Tour de Suisse | 5th stage 2022-06-16
15.06 105 91 Tour de Suisse | 4th stage 2022-06-15
14.06 64 84 Tour de Suisse | 3rd stage 2022-06-14
13.06 97 90 Tour de Suisse | 2nd stage 2022-06-13
12.06 84 85 Tour de Suisse | 1st stage 2022-06-12
29.05 59 26 Boucles de la Mayenne | 4th stage 2022-05-29
28.05 54 25 Boucles de la Mayenne | 3rd stage 2022-05-28
27.05 41 27 Boucles de la Mayenne | 2nd stage 2022-05-27
26.05 100 6 Boucles de la Mayenne | 1st stage 2022-05-26
15.05 23 18 Tour de Hongrie | 5th stage 2022-05-15
14.05 62 12 Tour de Hongrie | 4th stage 2022-05-14
13.05 69 10 Tour de Hongrie | 3rd stage 2022-05-13
12.05 31 10 Tour de Hongrie | 2nd stage 2022-05-12
11.05 43 7 Tour de Hongrie | 1st stage 2022-05-11
01.05 2 31 Tour of Hellas | 5th stage 2022-05-015
30.04 15 61 Tour of Hellas | 4th stage 2022-04-30
29.04 55 62 Tour of Hellas | 3rd stage 2022-04-29
28.04 81 71 Tour of Hellas | 2nd stage 2022-04-28
27.04 75 75 Tour of Hellas | 1st stage 2022-04-27
04.02 DNF Volta Comunitat Valenciana | 3rd stage 2022-02-04
03.02 141 144 Volta Comunitat Valenciana | 2nd stage 2022-02-03
02.02 116 116 Volta Comunitat Valenciana | 1st stage 2022-02-02